Temp
20 19 19 18 19 19 19 18 18 18 18 17 16 16 16 15 15 15 15 15 15 15 14 14 14 13 13 12 12 11 11 11 10 10 10 10 9 8 8 8 7 7 7
19 19 18 18 18 19 18 18 18 18 18 18 17 17 16 15 16 15 14 14 14 14 14 14 13 12 12 11 11 10 10 10 9 9 7 4 7 8 7 7 7 6 6
20 19 18 17 18 17 18 18 18 18 18 17 17 16 16 15 14 14 14 14 14 14 14 13 12 11 11 10 10 9 9 9 7 8 8 4 3 4 6 6 6 6 6
21 19 18 17 17 17 18 19 19 18 18 17 17 16 15 14 14 14 13 13 13 13 12 12 11 10 10 9 9 9 9 8 7 6 6 6 6 2 2 5 5 5 5
21 19 18 18 17 18 18 19 18 18 18 17 17 17 16 15 14 13 13 13 12 12 11 11 10 9 9 8 8 8 7 7 6 6 6 6 5 5 2 0 3 4 4
19 17 18 18 17 18 18 17 18 18 18 18 17 17 16 14 13 13 13 12 11 11 10 10 9 8 8 8 7 7 7 6 6 5 5 5 5 4 3 0 1 2 4
17 16 17 17 17 17 17 17 18 17 17 17 17 16 15 14 14 13 13 11 10 9 9 9 8 8 7 7 7 7 6 6 5 5 5 5 4 4 4 3 2 1 2
18 18 17 17 16 16 17 17 18 17 16 16 16 15 14 14 13 13 11 10 10 9 8 8 8 7 7 7 7 7 6 6 5 5 5 4 4 4 3 3 2 -1 0
16 17 16 17 16 16 16 16 16 16 15 15 14 14 13 13 13 11 11 10 9 9 8 7 7 7 7 7 6 6 6 6 5 5 5 4 3 3 2 3 2 1 -3
16 16 16 16 16 16 16 16 16 15 14 14 13 13 13 12 12 11 10 9 9 8 8 7 7 7 6 6 6 6 6 5 5 4 4 3 3 3 2 2 2 1 -1
17 16 16 16 16 16 15 16 15 15 14 13 13 13 12 12 11 11 10 9 8 8 8 7 7 6 6 6 6 5 5 5 4 3 3 3 2 2 2 1 1 0 -1
17 17 16 15 15 15 15 16 16 15 15 14 13 13 12 11 10 10 9 9 8 8 7 7 6 6 6 6 5 5 5 4 4 3 3 2 2 2 1 1 0 -1 -2
16 15 15 15 15 15 15 14 14 14 14 13 13 12 11 11 10 10 9 9 8 8 7 7 6 6 6 6 5 5 5 4 3 3 2 2 2 1 1 0 -1 -2 -3
17 16 15 16 16 16 15 14 12 12 12 12 12 12 11 11 10 10 9 9 8 7 7 7 6 6 6 6 5 5 4 4 3 2 2 2 1 0 -0 -1 -2 -3 -3
19 18 16 14 16 15 15 14 12 13 13 12 12 12 11 11 10 9 8 8 7 7 7 7 6 6 6 6 5 5 4 3 3 2 1 1 0 -0 -1 -2 -3 -3 -4
18 19 18 14 15 15 14 14 13 13 12 12 12 11 11 10 9 7 7 6 6 6 6 7 6 6 6 6 5 5 4 3 2 2 1 0 -0 -1 -1 -2 -3 -4 -5
16 16 17 14 14 14 14 14 14 13 12 11 11 10 9 8 7 6 5 5 5 5 6 5 6 6 6 6 5 4 3 2 1 1 -0 -1 -1 -2 -2 -3 -3 -3 -4
14 14 14 16 16 16 15 15 13 11 10 10 9 7 7 6 5 4 4 4 4 5 4 5 5 6 6 5 5 4 2 2 1 -0 -1 -1 -2 -2 -3 -3 -3 -4 -4
12 11 12 12 15 15 13 12 11 10 10 7 7 7 6 5 4 4 4 3 4 4 4 4 4 5 5 5 4 3 2 1 0 -1 -1 -2 -2 -3 -3 -4 -4 -4 -4
8 8 9 10 11 10 11 9 6 5 4 5 5 4 4 4 4 3 3 3 3 3 3 3 3 3 4 4 3 2 2 1 -0 -1 -2 -2 -3 -3 -4 -4 -5 -6 -5
6 5 5 5 5 6 6 4 4 3 3 4 4 4 4 4 4 3 3 3 3 2 2 2 2 3 3 3 3 2 1 1 -1 -1 -2 -2 -3 -4 -4 -5 -5 -5 -5
5 4 4 3 4 4 4 3 3 3 4 4 4 4 4 3 2 3 3 3 2 2 2 2 3 3 2 2 2 1 1 0 -1 -1 -1 -2 -3 -4 -5 -5 -5 -5 -5
4 4 4 4 4 5 6 5 4 4 5 5 4 2 2 2 2 2 2 2 2 2 2 2 2 2 2 2 1 1 1 -0 -1 -1 -2 -2 -3 -4 -4 -4 -5 -5 -5
4 4 3 3 3 3 3 3 3 3 3 3 3 3 2 2 2 1 1 1 2 2 1 2 1 1 1 1 1 0 0 -0 -1 -1 -2 -3 -3 -4 -4 -5 -4 -4 -4
3 3 3 3 3 3 3 3 3 3 3 2 2 2 2 1 1 1 1 1 2 1 2 2 2 1 1 1 1 1 0 -0 -0 -1 -3 -3 -4 -4 -4 -4 -4 -4 -5
3 3 3 3 3 3 3 3 3 3 3 2 2 2 2 2 2 1 1 2 2 2 2 2 1 1 1 0 0 0 0 0 -1 -3 -4 -4 -4 -4 -4 -5 -5 -4 -4
Height
804 807 811 815 818 823 825 827 830 833 835 838 841 845 845 847 849 850 852 854 854 856 857 857 858 859 860 862 862 862 862 862 861 861 861 862 862 862 862 863 862 861 860
803 806 809 812 815 818 824 828 830 832 835 837 838 839 844 848 849 851 851 851 853 855 856 857 858 859 860 861 861 861 861 861 860 860 861 862 862 860 861 862 860 859 859
795 800 804 806 811 815 819 824 828 831 834 836 838 841 845 846 848 849 849 851 853 854 855 856 857 859 859 859 859 859 859 859 859 858 859 862 864 861 859 858 858 857 857
788 793 800 806 805 808 813 818 823 827 830 832 835 837 838 840 843 846 848 851 853 854 855 856 857 858 858 857 856 855 856 856 857 858 858 858 857 858 858 854 853 853 853
780 786 791 795 799 804 808 812 818 824 828 829 831 833 836 838 841 846 849 851 853 854 855 856 856 855 855 857 856 853 854 856 857 856 856 855 854 853 852 852 849 848 847
784 788 789 794 801 805 807 812 814 818 822 824 826 829 832 836 841 845 848 850 851 853 854 855 855 855 854 854 855 853 855 855 854 854 854 853 853 853 852 851 848 846 845
780 786 787 793 799 802 805 809 811 815 819 822 824 827 831 835 840 845 847 849 851 853 854 853 852 852 853 853 854 852 854 855 854 852 852 851 850 849 849 849 847 845 843
775 778 783 788 794 797 802 804 807 813 818 821 823 829 833 838 842 845 847 849 851 851 851 854 853 850 852 852 852 852 851 852 851 851 850 849 849 849 847 847 847 845 842
772 776 781 784 787 793 797 799 805 809 815 820 825 830 835 836 839 842 845 847 850 851 850 850 852 850 852 850 849 851 851 850 851 849 847 846 846 846 846 846 845 844 843
773 776 779 782 787 789 793 797 803 807 814 819 823 827 831 834 837 840 843 846 846 848 848 847 848 849 849 849 846 848 848 847 847 846 846 845 844 844 844 843 842 841 840
768 771 774 777 781 787 791 793 798 802 808 812 817 821 825 828 832 835 837 842 845 844 845 846 846 846 845 846 843 844 845 844 843 842 844 843 842 843 842 841 839 838 836
763 765 767 772 777 780 784 787 791 794 797 801 808 813 818 822 827 831 834 836 838 839 841 843 843 843 843 844 842 842 841 841 841 840 840 840 839 840 839 837 836 835 832
761 764 767 770 772 774 777 780 782 785 790 798 805 811 814 819 823 826 829 832 833 835 837 838 839 839 839 839 839 837 837 836 837 837 837 838 836 836 835 834 833 830 829
758 762 765 766 769 770 771 776 782 787 791 797 803 807 810 815 819 822 825 828 831 833 835 835 835 835 836 836 836 834 834 834 834 832 832 832 832 833 832 831 829 827 826
758 761 766 769 770 771 774 778 782 786 789 795 800 803 807 811 815 819 823 826 828 830 831 831 831 831 832 832 831 830 830 830 831 830 828 829 829 828 827 826 824 823 821
760 760 759 761 762 766 771 775 779 783 787 791 795 801 805 809 814 816 819 821 823 825 828 827 825 826 826 825 826 826 826 825 825 825 824 824 824 824 823 820 821 819 817
765 763 760 760 762 763 766 771 775 780 785 789 795 799 802 806 810 813 814 817 820 824 823 822 820 819 818 819 820 821 823 823 825 824 822 822 821 820 819 818 818 815 815
767 766 764 763 761 763 765 767 772 777 785 792 796 800 804 807 809 812 813 815 819 820 818 817 817 814 813 813 814 816 816 817 817 818 818 817 816 815 815 814 812 811 810
771 769 766 765 764 765 767 768 773 777 781 786 792 796 797 801 809 808 811 817 819 817 814 812 812 811 809 809 810 812 813 813 814 814 814 813 812 812 811 809 808 806 806
773 771 769 767 766 768 767 772 780 785 792 797 795 801 811 810 813 809 813 814 815 814 811 808 808 806 805 805 806 807 808 808 810 810 810 809 808 808 807 806 805 803 803
778 777 774 774 777 778 776 780 786 792 797 800 806 807 807 808 808 809 810 810 810 810 807 804 803 801 801 801 802 803 803 803 804 804 804 804 804 804 803 802 802 801 800
783 782 782 784 786 786 785 789 793 800 803 804 807 807 808 807 808 808 808 808 807 804 802 800 798 796 796 796 797 797 797 798 799 798 798 799 799 798 798 798 798 797 797
789 790 790 791 793 795 795 797 802 803 804 805 805 806 806 807 806 805 804 803 801 800 798 797 794 792 791 791 792 792 792 792 792 792 792 793 793 793 794 794 794 793 792
795 796 796 798 800 801 802 803 805 806 806 807 806 806 805 803 802 800 799 797 796 795 793 792 790 789 787 787 787 786 786 786 785 786 786 787 787 787 788 788 788 788 788
800 800 800 803 804 806 806 807 807 807 807 806 805 804 802 800 798 796 795 793 792 791 788 787 785 783 781 780 779 778 778 778 777 779 780 781 781 780 781 782 782 783 782
802 803 803 805 806 807 808 808 807 806 805 804 802 801 799 797 795 793 789 788 786 784 782 780 779 777 775 773 772 770 770 770 770 771 771 772 773 773 773 775 776 776 776
Wind_Speed
19 32 34 35 38 36 37 35 33 29 26 24 26 26 24 22 20 18 16 15 12 9 5 2 2 5 6 7 9 7 9 10 6 4 3 2 3 7 11 13 10 10 11
14 24 30 32 38 40 36 36 32 29 27 23 27 26 26 23 20 18 16 13 12 8 4 2 3 3 4 3 4 6 7 5 3 1 1 2 3 2 12 9 8 11 12
20 19 29 34 34 35 39 38 36 31 28 25 28 27 27 22 21 19 16 14 10 7 4 5 3 2 4 4 4 4 1 4 5 4 2 1 2 2 1 2 7 10 12
17 17 25 27 32 37 43 41 38 35 30 27 31 35 32 27 26 23 21 17 11 8 6 3 1 4 4 4 4 4 3 4 3 2 4 3 4 3 2 0 1 6 9
18 18 27 34 35 39 41 42 38 32 33 33 35 38 32 29 28 25 21 15 11 7 4 1 2 4 5 4 3 6 6 5 2 2 2 4 3 3 3 3 3 6 7
11 9 24 28 28 33 33 30 32 30 34 36 39 41 36 30 29 25 19 14 11 7 4 2 5 5 4 2 1 4 5 3 2 1 2 2 3 4 3 2 5 6 5
11 14 15 24 25 29 32 31 32 31 33 34 36 39 35 35 29 23 17 14 12 8 4 2 3 4 1 1 5 7 5 4 4 4 7 8 7 5 7 6 5 3 7
14 15 17 24 28 32 36 36 37 34 30 31 31 33 32 27 21 16 13 12 9 5 4 4 5 5 3 4 7 8 6 7 7 6 8 9 6 7 3 4 5 3 4
9 12 15 23 27 32 36 39 37 35 33 30 29 27 23 20 17 14 11 9 6 3 1 2 5 6 6 6 6 9 10 10 10 12 9 6 3 3 7 10 5 5 3
8 9 14 19 23 31 39 39 38 36 32 29 26 25 22 18 16 13 10 8 4 2 2 3 5 7 8 9 8 6 6 7 9 6 6 9 10 12 10 6 8 5 3
13 13 15 25 31 31 35 39 38 36 34 31 29 27 24 21 18 15 14 6 5 1 3 4 7 8 8 9 9 6 8 7 6 4 5 5 4 5 9 9 8 7 8
13 15 20 25 28 33 37 41 40 39 39 36 36 32 27 24 21 17 13 11 7 5 5 5 8 9 10 11 8 8 8 8 7 6 5 4 5 9 9 10 9 10 10
9 8 11 20 27 32 33 36 42 43 41 40 36 31 27 25 23 20 17 15 10 8 7 8 9 10 11 12 12 13 12 9 7 5 5 5 7 9 8 11 11 9 10
8 7 9 15 24 29 32 27 26 29 36 37 35 32 30 28 24 22 21 13 11 10 8 11 10 11 12 14 18 14 11 11 10 7 7 10 8 9 10 11 8 9 10
5 5 5 6 15 18 21 21 27 33 37 37 36 33 31 28 26 23 18 10 9 5 10 12 18 18 18 19 22 19 16 13 10 8 7 8 9 10 10 8 7 7 10
5 3 5 9 18 23 24 25 30 34 37 37 37 32 30 28 22 21 15 8 3 5 12 17 22 25 23 22 22 21 18 16 13 10 9 10 11 12 11 9 8 9 11
6 5 2 7 15 22 30 31 34 34 35 33 28 29 25 29 23 15 12 8 5 9 19 25 24 22 26 23 22 20 16 11 12 12 9 9 11 12 11 10 10 13 15
7 7 8 3 14 23 30 31 32 29 24 21 22 25 29 23 18 13 11 8 6 13 16 20 20 21 21 21 20 19 16 14 15 12 10 11 12 11 11 11 14 15 18
6 10 14 13 6 12 15 20 22 26 29 27 28 27 26 21 13 9 7 5 15 18 14 14 16 17 16 18 19 18 16 12 14 11 11 12 12 12 12 11 13 18 20
15 16 18 19 19 12 18 25 24 24 23 23 25 24 18 14 8 4 5 11 12 15 16 17 18 18 16 16 18 19 15 15 13 12 11 11 13 12 10 11 14 18 17
16 18 25 25 22 21 27 29 27 24 23 24 19 15 7 2 3 6 11 12 14 15 20 19 18 18 17 18 18 18 18 17 15 14 12 12 13 12 11 11 14 16 15
18 21 24 23 23 24 28 26 26 22 19 14 6 3 5 5 6 9 9 13 16 14 15 16 17 16 17 18 17 19 19 17 18 17 14 12 11 13 12 12 15 14 16
17 19 20 22 22 20 20 22 16 11 6 2 2 4 4 8 12 12 15 15 14 16 16 16 18 17 21 21 21 20 20 21 22 19 16 14 13 12 13 15 15 16 19
15 17 19 19 18 17 16 13 8 6 5 2 2 7 10 11 12 13 14 14 17 20 21 19 15 18 19 25 24 25 26 27 26 23 21 18 17 16 16 17 16 17 17
16 19 19 17 14 11 10 7 6 5 6 8 10 11 13 15 16 16 17 19 19 21 21 24 21 20 21 23 25 26 28 31 31 27 24 22 22 21 21 19 19 18 18
16 15 14 11 8 7 8 9 10 11 12 14 16 16 17 18 19 21 24 24 24 22 23 24 25 27 29 28 25 25 26 26 26 25 27 28 28 26 25 23 22 19 19
Wind_Direction
174 172 171 174 175 178 175 178 176 170 167 161 155 152 151 146 143 150 144 143 136 136 141 138 288 302 316 328 328 330 330 329 318 270 330 294 141 38 26 9 42 38 32
167 176 175 176 177 176 182 182 180 172 174 174 168 166 163 161 158 155 144 139 145 160 177 234 263 283 293 306 316 323 320 311 359 47 89 3 302 322 355 355 22 24 9
177 176 179 179 175 174 180 184 185 184 185 181 170 168 166 160 158 159 153 159 174 183 210 200 207 272 309 325 316 331 299 290 84 95 178 77 225 314 165 67 18 352 335
187 177 176 180 177 179 185 190 193 193 192 188 181 180 177 169 171 165 162 161 173 185 200 215 272 322 337 323 332 343 315 191 168 105 87 147 190 190 281 165 300 357 347
195 176 182 182 183 181 187 193 194 200 200 192 192 189 187 180 168 163 160 164 166 168 158 171 336 0 360 11 73 94 85 80 73 322 279 264 252 205 182 227 272 313 334
199 181 183 176 182 185 190 191 195 201 207 205 199 196 189 178 164 163 169 168 169 160 146 52 15 17 20 90 60 41 355 343 329 309 251 259 228 259 260 253 273 274 304
160 164 159 173 177 185 186 187 190 185 187 190 190 189 184 174 172 174 177 165 153 144 109 32 60 18 37 283 323 347 345 334 307 314 307 298 260 269 281 272 289 272 295
167 163 164 171 172 179 180 178 175 177 180 181 183 184 172 171 175 174 167 160 157 152 116 23 359 38 16 317 312 318 313 311 294 293 317 271 253 309 340 321 304 309 285
165 164 167 171 173 172 176 177 174 174 175 170 168 171 174 173 172 165 163 158 148 126 1 2 350 355 328 328 324 293 310 300 280 286 273 247 256 267 319 314 306 306 298
166 167 170 171 174 175 175 177 180 176 171 169 173 176 178 176 173 169 164 163 162 173 349 340 332 323 326 323 335 304 294 286 285 269 236 253 266 268 278 282 292 294 283
183 179 174 175 177 175 174 176 180 180 180 185 186 183 177 180 181 182 175 202 188 281 320 312 316 312 315 299 300 301 308 290 256 210 235 256 248 257 282 285 293 302 325
188 181 178 173 174 176 178 183 187 192 197 195 185 182 181 183 184 185 189 189 200 241 267 271 306 300 293 297 259 288 291 273 232 225 239 264 261 275 277 280 295 303 317
191 183 167 180 184 188 188 187 192 194 193 186 184 183 185 187 186 188 190 192 217 224 222 277 302 284 268 277 259 279 272 220 224 228 253 283 278 275 276 290 291 298 309
192 185 192 196 198 200 199 192 188 185 189 190 187 186 189 192 192 194 193 212 205 219 253 279 290 280 272 269 252 263 243 231 232 226 256 270 277 285 294 286 281 298 303
159 175 182 219 221 209 201 190 187 192 194 190 190 194 195 197 195 190 180 166 197 246 276 274 289 276 269 271 249 257 256 241 230 237 250 264 282 294 286 270 293 298 314
55 338 253 189 193 193 190 186 192 197 196 194 195 195 193 194 175 156 145 130 97 309 295 286 280 275 271 262 247 252 246 243 245 245 249 263 277 291 278 282 290 312 323
63 66 131 191 186 185 188 189 198 199 197 193 190 190 184 159 149 141 111 90 32 296 280 291 291 283 273 262 247 240 240 236 264 260 252 264 277 283 275 275 291 315 319
41 23 12 290 207 205 203 201 197 190 176 165 166 157 145 135 121 102 83 30 302 278 298 302 301 291 284 261 237 229 229 239 249 244 258 270 281 279 267 277 301 313 320
60 54 41 30 355 232 209 178 162 165 160 146 145 151 149 134 115 81 38 284 284 300 298 296 300 298 289 258 232 227 226 243 244 251 260 272 274 276 261 283 305 314 319
56 54 57 55 56 80 143 126 107 105 97 113 119 116 95 80 73 69 264 272 277 289 296 295 295 292 281 252 229 230 234 237 241 249 262 276 275 272 263 286 305 309 311
59 64 63 62 64 85 101 93 95 93 106 111 103 95 81 352 274 259 278 262 278 297 302 296 293 290 267 249 234 230 241 242 239 247 261 268 267 265 268 289 296 295 301
58 63 71 69 79 84 89 89 91 104 103 93 66 358 293 259 259 266 269 281 292 304 305 312 303 285 247 233 235 238 244 242 240 252 262 263 262 261 271 282 289 287 290
73 77 82 81 81 87 95 100 108 116 109 161 196 214 243 264 278 273 281 285 287 294 288 307 304 285 246 242 242 247 249 244 244 254 257 256 255 256 261 281 281 284 286
77 83 79 73 71 78 82 86 81 69 55 39 299 282 284 290 288 281 278 284 283 289 275 277 294 290 271 256 253 248 245 247 246 249 251 252 251 253 264 276 273 276 281
88 92 91 88 87 85 81 70 43 5 338 326 319 311 308 306 300 293 288 285 280 283 279 274 277 283 276 271 271 266 256 250 247 247 248 247 245 250 257 267 268 270 278
98 92 89 86 73 57 40 19 1 347 336 325 321 317 315 314 303 297 294 289 285 280 277 272 268 281 278 283 280 266 265 250 244 237 241 245 246 248 253 260 267 264 269